Celebrity Century — 9HJI9 — position and weather

sailwx.info

Track history (hours):
 
Tides and Currents Weather Stations Pressure Air Temp Water Temp Dewpoint Dewpoint Depression Visibility Wind Speed Wind Dir Waves Ship Positions

Celebrity Century

Last reported at 2018-Oct-23 04:57 UTC. Time now 2018-Dec-13 12:49 UTC.
Position N 01°30' E 103°09'.
Warning: this ship's position is 51 days out of date.

Length 251 m; draft 8 m.

Type: Ship. MMSI: 249054000.

Date/timePositionNaut miles runAvg speedWind from/ knotsBaromVisibWave heightAir tempDewpointWater temp
2018-Oct-23 04:57N 01°30' E 103°09'1014.1
2018-Oct-23 04:16N 01°23' E 103°15'313.4
2018-Oct-23 04:01N 01°21' E 103°18'113.2
2018-Oct-23 03:56N 01°20' E 103°18'712.9
2018-Oct-23 03:24N 01°16' E 103°23'411.3
2018-Oct-23 03:04N 01°14' E 103°27'112.4
2018-Oct-23 02:57N 01°14' E 103°28'511.7
2018-Oct-23 02:30N 01°12' E 103°33'614.5
2018-Oct-23 02:03N 01°11' E 103°40'1 9.5
2018-Oct-23 02:00N 01°11' E 103°40'713.7
2018-Oct-23 01:30N 01°10' E 103°47'716.5
2018-Oct-23 01:04N 01°13' E 103°53'116.4
2018-Oct-23 01:00N 01°13' E 103°54'916.9
2018-Oct-23 00:30N 01°16' E 104°03'716.5
2018-Oct-23 00:03N 01°17' E 104°10'116.4
2018-Oct-22 23:59N 01°17' E 104°11'714.0
2018-Oct-22 23:30N 01°18' E 104°18'3 7.7
2018-Oct-22 23:03N 01°20' E 104°21'0 6.4
2018-Oct-22 23:00N 01°20' E 104°21'4 7.3
2018-Oct-22 22:28N 01°23' E 104°24'4 9.7
2018-Oct-22 22:03N 01°25' E 104°27'115.4
2018-Oct-22 21:59N 01°26' E 104°28'712.8
2018-Oct-22 21:27N 01°31' E 104°33'513.0
2018-Oct-22 21:03N 01°35' E 104°36'112.9
2018-Oct-22 20:59N 01°36' E 104°36'713.2
2018-Oct-22 20:28N 01°42' E 104°39'613.1
2018-Oct-22 20:02N 01°47' E 104°41'214.2
2018-Oct-22 19:52N 01°49' E 104°41'512.7
2018-Oct-22 19:28N 01°54' E 104°43'613.5
2018-Oct-22 19:02N 01°59' E 104°46'111.7
2018-Oct-22 18:58N 02°00' E 104°46'713.0
2018-Oct-22 18:27N 02°06' E 104°49'813.4
2018-Oct-22 17:52N 02°14' E 104°52'513.5
2018-Oct-22 17:30N 02°18' E 104°54'  
2018-Oct-18 11:13N 23°32' E 118°11'  
Track history (hours):
 
Tides and Currents Weather Stations Pressure Air Temp Water Temp Dewpoint Dewpoint Depression Visibility Wind Speed Wind Dir Waves Ship Positions

Celebrity Century

Last reported at 2018-Oct-23 04:57 UTC. Time now 2018-Dec-13 12:49 UTC.
Position N 01°30' E 103°09'.
Warning: this ship's position is 51 days out of date.

Length 251 m; draft 8 m.

Type: Ship. MMSI: 249054000.

Date/timePositionNaut miles runAvg speedWind from/ knotsBaromVisibWave heightAir tempDewpointWater temp
2018-Oct-23 04:57N 01°30' E 103°09'1014.1
2018-Oct-23 04:16N 01°23' E 103°15'313.4
2018-Oct-23 04:01N 01°21' E 103°18'113.2
2018-Oct-23 03:56N 01°20' E 103°18'712.9
2018-Oct-23 03:24N 01°16' E 103°23'411.3
2018-Oct-23 03:04N 01°14' E 103°27'112.4
2018-Oct-23 02:57N 01°14' E 103°28'511.7
2018-Oct-23 02:30N 01°12' E 103°33'614.5
2018-Oct-23 02:03N 01°11' E 103°40'1 9.5
2018-Oct-23 02:00N 01°11' E 103°40'713.7
2018-Oct-23 01:30N 01°10' E 103°47'716.5
2018-Oct-23 01:04N 01°13' E 103°53'116.4
2018-Oct-23 01:00N 01°13' E 103°54'916.9
2018-Oct-23 00:30N 01°16' E 104°03'716.5
2018-Oct-23 00:03N 01°17' E 104°10'116.4
2018-Oct-22 23:59N 01°17' E 104°11'714.0
2018-Oct-22 23:30N 01°18' E 104°18'3 7.7
2018-Oct-22 23:03N 01°20' E 104°21'0 6.4
2018-Oct-22 23:00N 01°20' E 104°21'4 7.3
2018-Oct-22 22:28N 01°23' E 104°24'4 9.7
2018-Oct-22 22:03N 01°25' E 104°27'115.4
2018-Oct-22 21:59N 01°26' E 104°28'712.8
2018-Oct-22 21:27N 01°31' E 104°33'513.0
2018-Oct-22 21:03N 01°35' E 104°36'112.9
2018-Oct-22 20:59N 01°36' E 104°36'713.2
2018-Oct-22 20:28N 01°42' E 104°39'613.1
2018-Oct-22 20:02N 01°47' E 104°41'214.2
2018-Oct-22 19:52N 01°49' E 104°41'512.7
2018-Oct-22 19:28N 01°54' E 104°43'613.5
2018-Oct-22 19:02N 01°59' E 104°46'111.7
2018-Oct-22 18:58N 02°00' E 104°46'713.0
2018-Oct-22 18:27N 02°06' E 104°49'813.4
2018-Oct-22 17:52N 02°14' E 104°52'513.5
2018-Oct-22 17:30N 02°18' E 104°54'  
2018-Oct-18 11:13N 23°32' E 118°11'  

Dump ship's entire track history